Voltar ao catálogo

STARLINK-2711

AtivoComunicaçõesVLEO
NORAD 48673·PAYLOAD·🇺🇸 United States

Lançado May 26, 2021 de Cape Canaveral Space Force Station

Loading…

Próximas Passagens (próximas 24 horas)

TLE

AtualizadoSource: CelesTrak SupGP

Época: Sep 14, 2026, 20:20 UTC

1 48673C 21044AM  26257.84770833 -.00031080  00000+0 -99931-3 0  2575
2 48673  53.1575 315.1200 0001144  83.1676 235.6386 15.31722157    17

Acompanhe STARLINK-2711 em tempo real com AllMySat

Download on the App Store